Location: Springfield
(37.2150°N, 93.2980°W)
Time: 17:11:40
(UTC-06:00)

ISS - Visible Passes

Search period start: 16 January 2018 00:00
Search period end: 26 January 2018 00:00
Orbit: 401 x 406 km, 51.6° (Epoch: 17 January)

Date Brightness Start Highest point End Pass type
(mag) Time Alt. Az. Time Alt. Az. Time Alt. Az.
16 Jan -2.2 05:20:29 34° E 05:20:29 34° E 05:22:38 10° ESE visible
16 Jan -1.6 06:53:50 10° W 06:55:35 14° SW 06:57:21 10° SSW visible
17 Jan -2.7 06:03:14 27° SW 06:03:22 28° SW 06:06:12 10° SSE visible
18 Jan -1.2 05:13:23 17° SSE 05:13:23 17° SSE 05:14:15 10° SE visible
22 Jan -0.6 19:52:23 10° SW 19:52:32 11° SW 19:52:32 11° SW visible
23 Jan -2.9 19:00:10 10° SSW 19:02:43 35° SSE 19:02:43 35° SSE visible
24 Jan -2.0 18:08:32 10° S 18:10:50 18° SE 18:12:48 12° E visible
24 Jan -1.3 19:44:02 10° WSW 19:45:28 22° W 19:45:28 22° W visible
25 Jan -3.8 18:51:17 10° SW 18:54:31 77° NW 18:55:28 42° NE visible
